Blattenbach Aussen Messungen

Zurück zum Überblick

Zeitpunkt Temperatur Temperatur Kabelsensor Luftfeuchte
25.03.2019 03:31:18 8,5 C 9,2 C 71,0%
25.03.2019 03:24:17 8,5 C 9,2 C 70,0%
25.03.2019 03:17:16 8,5 C 9,2 C 70,0%
25.03.2019 03:10:17 8,5 C 9,2 C 70,0%
25.03.2019 03:03:16 8,4 C 9,2 C 70,0%
25.03.2019 02:56:19 8,4 C 9,2 C 70,0%
25.03.2019 02:49:18 8,4 C 9,2 C 70,0%
25.03.2019 02:42:15 8,3 C 9,2 C 70,0%
25.03.2019 02:35:16 8,2 C 9,3 C 71,0%
25.03.2019 02:28:16 8,2 C 9,3 C 70,0%
25.03.2019 02:21:18 8,1 C 9,3 C 71,0%
25.03.2019 02:14:17 8,1 C 9,3 C 71,0%
25.03.2019 02:07:17 8,1 C 9,3 C 70,0%
25.03.2019 02:00:17 8,0 C 9,3 C 70,0%
25.03.2019 01:53:15 7,9 C 9,4 C 70,0%
25.03.2019 01:46:16 7,7 C 9,4 C 70,0%
25.03.2019 01:39:15 7,4 C 9,4 C 70,0%
25.03.2019 01:32:18 7,3 C 9,4 C 69,0%
25.03.2019 01:25:19 7,3 C 9,5 C 69,0%
25.03.2019 01:18:14 7,4 C 9,5 C 69,0%
25.03.2019 01:11:16 7,4 C 9,5 C 69,0%
25.03.2019 01:04:16 7,5 C 9,5 C 69,0%
25.03.2019 00:57:17 7,8 C 9,5 C 68,0%
25.03.2019 00:50:15 7,9 C 9,6 C 68,0%
25.03.2019 00:43:14 8,0 C 9,6 C 68,0%
25.03.2019 00:36:17 8,0 C 9,6 C 67,0%
25.03.2019 00:29:18 8,0 C 9,6 C 68,0%
25.03.2019 00:22:17 8,1 C 9,7 C 67,0%
25.03.2019 00:15:18 8,1 C 9,7 C 66,0%
25.03.2019 00:08:16 8,2 C 9,7 C 66,0%
25.03.2019 00:01:15 8,5 C 9,7 C 66,0%
24.03.2019 23:54:16 8,6 C 9,7 C 65,0%
24.03.2019 23:47:16 8,8 C 9,8 C 65,0%
24.03.2019 23:40:17 9,0 C 9,8 C 64,0%
24.03.2019 23:33:19 9,2 C 9,8 C 64,0%
24.03.2019 23:26:19 9,5 C 9,8 C 63,0%
24.03.2019 23:19:15 9,9 C 9,8 C 62,0%
24.03.2019 23:12:18 10,0 C 9,9 C 61,0%
24.03.2019 23:05:17 10,3 C 9,9 C 60,0%
24.03.2019 22:58:00 10,6 C 9,9 C 60,0%
24.03.2019 22:51:03 10,9 C 9,9 C 58,0%
24.03.2019 22:44:03 11,2 C 9,9 C 58,0%
24.03.2019 22:37:00 11,2 C 10,0 C 57,0%
24.03.2019 22:30:02 11,2 C 10,0 C 57,0%
24.03.2019 22:23:03 11,2 C 10,0 C 57,0%
24.03.2019 22:16:01 11,2 C 10,0 C 57,0%
24.03.2019 22:09:01 11,3 C 10,0 C 57,0%
24.03.2019 22:02:02 11,3 C 10,0 C 57,0%
24.03.2019 21:55:04 11,3 C 10,1 C 57,0%
24.03.2019 21:48:01 11,4 C 10,1 C 57,0%